"Period start","avg(HW err(1)/warn(2) (#))","avg(Visibility (m))","avg(Weather code (#))","avg(Precip intensity (mm/h))","min(HW err(1)/warn(2) (#))","max(HW err(1)/warn(2) (#))","std(HW err(1)/warn(2) (#))","med(HW err(1)/warn(2) (#))","min(Visibility (m))","max(Visibility (m))","std(Visibility (m))","med(Visibility (m))","min(Weather code (#))","max(Weather code (#))","std(Weather code (#))","med(Weather code (#))","min(Precip intensity (mm/h))","max(Precip intensity (mm/h))","std(Precip intensity (mm/h))","med(Precip intensity (mm/h))"
2016-03-28 00:00:00,2,2264,71,2.21,2,2,0,2,781,4482,1187,1989,71,71,0,71,0.15,4.95,1.59,1.75
2016-03-28 00:10:00,2,2298,71,1.50,2,2,0,2,927,6114,1451,1784,71,71,0,71,0.45,3.25,0.88,1.33
2016-03-28 00:20:00,2,3196,71,1.42,2,2,0,2,993,7522,2008,2533,71,71,0,71,0.20,4.05,1.22,1.10
2016-03-28 00:30:00,2,4314,71,0.66,2,2,0,2,1530,12247,3526,2662,71,71,0,71,0.05,1.65,0.55,0.50
2016-03-28 00:40:00,2,3205,71,0.21,2,2,0,2,1920,5384,886,3240,71,71,0,71,0.05,0.55,0.13,0.20
2016-03-28 00:50:00,2,1555,71,0.55,2,2,0,2,1121,1978,290,1510,71,71,0,71,0.30,0.70,0.12,0.57
2016-03-28 01:00:00,2,1247,71,0.96,2,2,0,2,944,1843,286,1133,71,71,0,71,0.55,1.35,0.21,0.92
2016-03-28 01:10:00,2,1524,71,0.41,2,2,0,2,1081,1918,259,1618,71,71,0,71,0.25,0.75,0.16,0.35
2016-03-28 01:20:00,2,4024,71,0.10,2,2,0,2,1591,7792,2088,3236,71,71,0,71,0.00,0.30,0.09,0.10
2016-03-28 01:30:00,2,10587,72,0.04,2,2,0,2,7815,15133,2182,9942,71,77,2,71,0.00,0.15,0.05,0.05
2016-03-28 01:40:00,2,9372,74,0.03,2,2,0,2,5689,18834,3390,8465,71,77,3,74,0.00,0.10,0.04,0.00
2016-03-28 01:50:00,2,3834,72,0.29,2,2,0,2,2238,7123,1449,3579,71,77,2,71,0.05,0.65,0.19,0.25
2016-03-28 02:00:00,2,3392,71,0.31,2,2,0,2,2420,4959,803,3284,71,71,0,71,0.15,0.65,0.15,0.25
2016-03-28 02:10:00,2,3326,71,0.13,2,2,0,2,2558,4139,511,3369,71,71,0,71,0.05,0.30,0.07,0.12
2016-03-28 02:20:00,2,1655,71,0.23,2,2,0,2,1128,2303,380,1599,71,71,0,71,0.05,0.55,0.13,0.20
2016-03-28 02:30:00,2,2642,72,0.28,2,2,0,2,1714,3733,696,2508,71,77,2,71,0.00,0.55,0.20,0.25
2016-03-28 02:40:00,2,3621,73,0.10,2,2,0,2,3280,4060,251,3585,71,77,3,71,0.00,0.40,0.12,0.08
2016-03-28 02:50:00,2,6486,75,0.07,2,2,0,2,4033,11580,2193,6098,71,77,3,77,0.00,0.10,0.04,0.08
2016-03-28 03:00:00,2,12889,77,0.01,2,2,0,2,8631,21280,4133,11204,77,77,0,77,0.00,0.05,0.02,0.00
2016-03-28 03:10:00,2,8551,77,0.02,2,2,0,2,5298,18481,3564,7097,77,77,0,77,0.00,0.05,0.02,0.00
2016-03-28 03:20:00,2,13920,77,0.02,2,2,0,2,7326,24497,5468,13720,77,77,0,77,0.00,0.05,0.02,0.00
2016-03-28 03:30:00,2,24298,38,0.03,2,2,0,2,11551,40409,7497,24081,0,77,38,36,0.00,0.20,0.06,0.00
2016-03-28 03:40:00,2,19530,7,0.00,2,2,0,2,8620,29030,6551,18504,0,71,21,0,0.00,0.00,0.00,0.00
2016-03-28 03:50:00,2,8576,74,0.12,2,2,0,2,5892,16075,2923,7116,71,77,3,74,0.00,0.35,0.10,0.10
2016-03-28 04:00:00,2,7836,73,0.07,2,2,0,2,5891,11498,1512,7756,71,77,3,71,0.00,0.30,0.09,0.05
2016-03-28 04:10:00,2,4766,71,0.18,2,2,0,2,2945,6362,1017,4820,71,71,0,71,0.05,0.55,0.16,0.10
2016-03-28 04:20:00,2,11968,73,0.06,2,2,0,2,7638,17973,3223,11197,71,77,3,71,0.00,0.15,0.06,0.05
2016-03-28 04:30:00,2,7714,71,0.15,2,2,0,2,2758,12875,3419,7568,71,71,0,71,0.00,0.35,0.13,0.15
2016-03-28 04:40:00,2,4490,71,0.15,2,2,0,2,2411,10319,2134,3846,71,71,0,71,0.00,0.30,0.08,0.15
2016-03-28 04:50:00,2,9240,76,0.04,2,2,0,2,5797,14035,2744,8578,71,77,2,77,0.00,0.20,0.06,0.05
2016-03-28 05:00:00,2,26046,77,0.01,2,2,0,2,12651,39341,9872,27160,77,78,0,77,0.00,0.05,0.02,0.00
2016-03-28 05:10:00,2,7973,76,0.06,2,2,0,2,4050,12945,2268,7952,71,78,3,77,0.00,0.20,0.05,0.05
2016-03-28 05:20:00,2,6832,77,0.03,2,2,0,2,5257,11547,2068,5840,77,78,0,77,0.00,0.05,0.03,0.03
2016-03-28 05:30:00,2,7104,77,0.02,2,2,0,2,5305,8971,1010,7273,77,77,0,77,0.00,0.05,0.02,0.00
2016-03-28 05:40:00,2,6833,75,0.07,2,2,0,2,3778,9127,1645,7217,71,77,3,77,0.00,0.20,0.05,0.05
2016-03-28 05:50:00,2,4698,76,0.08,2,2,0,2,3292,6231,1062,4594,71,77,2,77,0.05,0.15,0.03,0.08
2016-03-28 06:00:00,2,3611,77,0.18,2,2,0,2,1650,5322,1287,3428,77,77,0,77,0.05,0.55,0.20,0.08
2016-03-28 06:10:00,2,1637,72,0.68,2,2,0,2,931,3141,778,1175,71,77,2,71,0.20,1.45,0.39,0.68
2016-03-28 06:20:00,2,3004,71,0.35,2,2,0,2,1508,5255,1306,2612,71,71,0,71,0.15,0.70,0.16,0.28
2016-03-28 06:30:00,2,3021,71,0.36,2,2,0,2,1715,4593,809,3190,71,71,0,71,0.20,0.60,0.15,0.35
2016-03-28 06:40:00,2,1711,71,0.56,2,2,0,2,1289,2237,349,1631,71,71,0,71,0.35,0.95,0.16,0.53
2016-03-28 06:50:00,2,3986,71,0.46,2,2,0,2,2331,9264,1960,3056,71,71,0,71,0.20,0.80,0.21,0.42
2016-03-28 07:00:00,2,4670,71,0.30,2,2,0,2,3218,6461,1070,4588,71,71,0,71,0.10,0.60,0.15,0.30
2016-03-28 07:10:00,2,2173,71,0.69,2,2,0,2,1446,3256,610,2057,71,71,0,71,0.35,0.85,0.16,0.75
2016-03-28 07:20:00,2,1850,71,1.01,2,2,0,2,1516,2282,277,1772,71,71,0,71,0.45,1.30,0.25,1.10
2016-03-28 07:30:00,2,1297,71,1.64,2,2,0,2,946,1516,186,1368,71,71,0,71,1.25,2.25,0.30,1.50
2016-03-28 07:40:00,2,1349,71,1.65,2,2,0,2,810,2578,543,1157,71,72,0,71,0.60,2.95,0.69,1.62
2016-03-28 07:50:00,2,1599,71,0.98,2,2,0,2,1268,2063,271,1574,71,71,0,71,0.75,1.65,0.25,0.92
2016-03-28 08:00:00,2,946,71,1.62,2,2,0,2,741,1187,142,950,71,72,0,71,1.05,2.35,0.38,1.60
2016-03-28 08:10:00,2,881,72,1.70,2,2,0,2,782,1057,77,858,72,72,0,72,1.35,2.00,0.23,1.70
2016-03-28 08:20:00,2,933,72,1.39,2,2,0,2,726,1618,237,877,71,72,0,72,0.65,2.15,0.36,1.38
2016-03-28 08:30:00,2,6239,71,0.14,2,2,0,2,3248,10047,2217,5974,71,71,0,71,0.05,0.40,0.10,0.10
2016-03-28 08:40:00,2,5774,71,0.20,2,2,0,2,3303,8285,1833,5614,71,71,0,71,0.00,0.55,0.19,0.15
2016-03-28 08:50:00,2,3695,71,0.62,2,2,0,2,2097,7547,1790,2830,71,71,0,71,0.15,1.00,0.26,0.68
2016-03-28 09:00:00,2,3498,71,0.61,2,2,0,2,2273,6028,1118,3229,71,71,0,71,0.20,1.10,0.27,0.65
2016-03-28 09:10:00,2,7864,74,0.10,2,2,0,2,5724,10504,1501,8172,71,77,3,74,0.00,0.20,0.05,0.10
2016-03-28 09:20:00,2,11199,77,0.10,2,2,0,2,9031,12962,1116,11388,77,77,0,77,0.00,0.30,0.08,0.05
2016-03-28 09:30:00,2,7420,71,0.42,2,2,0,2,5054,10123,1580,7920,71,71,0,71,0.20,0.90,0.22,0.35
2016-03-28 09:40:00,2,6616,71,0.20,2,2,0,2,3922,9328,1557,6292,71,71,0,71,0.10,0.30,0.06,0.20
2016-03-28 09:50:00,2,16104,71,0.10,2,2,0,2,6570,32214,9561,10766,71,71,0,71,0.00,0.50,0.14,0.05
2016-03-28 10:00:00,2,28022,73,0.01,2,2,0,2,21728,34790,4802,27116,71,78,3,71,0.00,0.05,0.02,0.00
2016-03-28 10:10:00,2,31256,78,0.01,2,2,0,2,23618,42826,5367,30757,77,78,0,78,0.00,0.05,0.02,0.00
2016-03-28 10:20:00,2,25887,77,0.01,2,2,0,2,19765,33288,4141,25287,77,77,0,77,0.00,0.05,0.02,0.00
2016-03-28 10:30:00,2,19596,74,0.04,2,2,0,2,10778,27677,5306,18826,71,77,3,74,0.00,0.10,0.03,0.05
2016-03-28 10:40:00,2,21855,77,0.02,2,2,0,2,16166,27574,3336,22102,77,78,0,77,0.00,0.10,0.03,0.00
2016-03-28 10:50:00,2,25260,78,0.01,2,2,0,2,21610,27783,2124,25955,77,78,0,78,0.00,0.05,0.02,0.00
2016-03-28 11:00:00,2,34410,78,0.00,2,2,0,2,28961,41377,3980,34086,78,78,0,78,0.00,0.00,0.00,0.00
2016-03-28 11:10:00,2,36247,78,0.01,2,2,0,2,17690,49755,11565,39471,77,78,0,78,0.00,0.05,0.02,0.00
2016-03-28 11:20:00,2,23297,78,0.00,2,2,0,2,10217,44448,12572,16958,77,78,0,78,0.00,0.00,0.00,0.00
2016-03-28 11:30:00,1,42075,77,0.00,1,2,0,1,39756,44394,2319,42075,77,77,0,77,0.00,0.00,0.00,0.00
2016-03-28 11:40:00,1,,,,1,1,0,1,,,,,,,,,,,,
2016-03-28 11:50:00,1,,,,1,1,0,1,,,,,,,,,,,,
2016-03-28 12:00:00,1,,,,1,1,0,1,,,,,,,,,,,,
2016-03-28 12:10:00,1,,,,1,1,0,1,,,,,,,,,,,,
2016-03-28 12:20:00,2,23495,77,0.01,1,2,0,2,0,37073,10747,24190,77,77,0,77,0.00,0.05,0.02,0.00
2016-03-28 12:30:00,2,18768,76,0.04,2,2,0,2,7579,32777,7325,19090,71,78,3,77,0.00,0.30,0.09,0.00
2016-03-28 12:40:00,2,12435,75,0.06,2,2,0,2,9589,17259,2040,11906,71,77,3,77,0.00,0.15,0.04,0.05
2016-03-28 12:50:00,2,13429,78,0.07,2,2,0,2,9235,16704,2257,13425,77,78,0,78,0.00,0.30,0.08,0.05
2016-03-28 13:00:00,2,13886,71,0.06,2,2,0,2,6620,26792,5820,13664,71,71,0,71,0.00,0.15,0.05,0.05
2016-03-28 13:10:00,2,8144,73,0.07,2,2,0,2,5026,11389,1818,8109,71,77,3,71,0.00,0.15,0.05,0.05
2016-03-28 13:20:00,2,6270,73,0.18,2,2,0,2,3092,10890,2285,6495,71,78,3,71,0.05,0.45,0.14,0.15
2016-03-28 13:30:00,2,3726,71,0.14,2,2,0,2,2647,5172,816,3352,71,71,0,71,0.00,0.50,0.14,0.10
2016-03-28 13:40:00,2,7478,77,0.06,2,2,0,2,3155,10684,2754,8314,71,78,2,78,0.00,0.15,0.05,0.05
2016-03-28 13:50:00,2,22989,78,0.01,2,2,0,2,15281,31301,5532,22186,77,78,0,78,0.00,0.10,0.03,0.00
2016-03-28 14:00:00,2,16168,75,0.03,2,2,0,2,7630,23471,5329,16380,71,78,3,78,0.00,0.15,0.05,0.00
2016-03-28 14:10:00,2,22112,76,0.00,2,2,0,2,16265,32341,5230,19238,71,78,3,78,0.00,0.00,0.00,0.00
2016-03-28 14:20:00,1,22806,78,0.00,1,2,0,1,21075,24536,1730,22806,78,78,0,78,0.00,0.00,0.00,0.00
2016-03-28 14:30:00,1,,,,1,1,0,1,,,,,,,,,,,,
2016-03-28 14:40:00,1,,,,1,1,0,1,,,,,,,,,,,,
2016-03-28 14:50:00,1,,,,1,1,0,1,,,,,,,,,,,,
2016-03-28 15:00:00,1,,,,1,1,0,1,,,,,,,,,,,,
2016-03-28 15:10:00,1,,,,1,1,0,1,,,,,,,,,,,,
2016-03-28 15:20:00,1,,,,1,1,0,1,,,,,,,,,,,,
2016-03-28 15:30:00,1,,,,1,1,0,1,,,,,,,,,,,,
2016-03-28 15:40:00,1,,,,1,1,0,1,,,,,,,,,,,,
2016-03-28 15:50:00,1,,,,1,1,0,1,,,,,,,,,,,,
2016-03-28 16:00:00,1,,,,1,1,0,1,,,,,,,,,,,,
2016-03-28 16:10:00,1,,,,1,1,0,1,,,,,,,,,,,,
2016-03-28 16:20:00,1,,,,1,1,0,1,,,,,,,,,,,,
2016-03-28 16:30:00,1,,,,1,1,0,1,,,,,,,,,,,,
2016-03-28 16:40:00,1,,,,1,1,0,1,,,,,,,,,,,,
2016-03-28 16:50:00,1,,,,1,1,0,1,,,,,,,,,,,,
2016-03-28 17:00:00,1,,,,1,1,0,1,,,,,,,,,,,,
2016-03-28 17:10:00,1,,,,1,1,0,1,,,,,,,,,,,,
2016-03-28 17:20:00,1,,,,1,1,0,1,,,,,,,,,,,,
2016-03-28 17:30:00,1,,,,1,1,0,1,,,,,,,,,,,,
2016-03-28 17:40:00,1,,,,1,1,0,1,,,,,,,,,,,,
2016-03-28 17:50:00,1,,,,1,1,0,1,,,,,,,,,,,,
2016-03-28 18:00:00,1,,,,1,1,0,1,,,,,,,,,,,,
2016-03-28 18:10:00,1,,,,1,1,0,1,,,,,,,,,,,,
2016-03-28 18:20:00,1,,,,1,1,0,1,,,,,,,,,,,,
2016-03-28 18:30:00,1,,,,1,1,0,1,,,,,,,,,,,,
2016-03-28 18:40:00,1,,,,1,1,0,1,,,,,,,,,,,,
2016-03-28 18:50:00,1,,,,1,1,0,1,,,,,,,,,,,,
2016-03-28 19:00:00,1,0,77,0.00,1,2,0,1,0,0,0,0,77,77,0,77,0.00,0.00,0.00,0.00
2016-03-28 19:10:00,1,,,,1,1,0,1,,,,,,,,,,,,
2016-03-28 19:20:00,1,,,,1,1,0,1,,,,,,,,,,,,
2016-03-28 19:30:00,1,,,,1,1,0,1,,,,,,,,,,,,
2016-03-28 19:40:00,1,,,,1,1,0,1,,,,,,,,,,,,
2016-03-28 19:50:00,1,,,,1,1,0,1,,,,,,,,,,,,
2016-03-28 20:00:00,1,,,,1,1,0,1,,,,,,,,,,,,
2016-03-28 20:10:00,1,,,,1,1,0,1,,,,,,,,,,,,
2016-03-28 20:20:00,1,50000,,0.00,1,2,0,1,50000,50000,0,50000,,,,,0.00,0.00,0.00,0.00
2016-03-28 20:30:00,2,43195,0,0.00,1,2,0,2,0,50000,15332,48716,0,0,0,0,0.00,0.00,0.00,0.00
2016-03-28 20:40:00,1,,,,1,1,0,1,,,,,,,,,,,,
2016-03-28 20:50:00,2,22878,60,0.01,1,2,0,2,15377,28746,4546,21163,41,77,16,71,0.00,0.10,0.03,0.00
2016-03-28 21:00:00,2,33662,76,0.00,2,2,0,2,22181,45997,8026,35432,71,77,2,77,0.00,0.00,0.00,0.00
2016-03-28 21:10:00,2,24134,75,0.01,2,2,0,2,15246,38930,7904,21404,71,77,3,77,0.00,0.05,0.02,0.00
2016-03-28 21:20:00,2,31107,74,0.00,2,2,0,2,20369,38801,5288,32418,71,77,3,74,0.00,0.00,0.00,0.00
2016-03-28 21:30:00,1,16358,75,0.02,1,2,0,1,0,27559,11827,21514,71,77,3,77,0.00,0.05,0.02,0.00
2016-03-28 21:40:00,1,0,71,0.00,1,2,0,1,0,0,0,0,71,71,0,71,0.00,0.00,0.00,0.00
2016-03-28 21:50:00,2,27510,56,0.00,1,2,0,2,0,42107,11665,30610,0,77,33,74,0.00,0.00,0.00,0.00
2016-03-28 22:00:00,1,,,,1,1,0,1,,,,,,,,,,,,
2016-03-28 22:10:00,1,,,,1,1,0,1,,,,,,,,,,,,
2016-03-28 22:20:00,1,,,,1,1,0,1,,,,,,,,,,,,
2016-03-28 22:30:00,1,,,,1,1,0,1,,,,,,,,,,,,
2016-03-28 22:40:00,1,,,,1,1,0,1,,,,,,,,,,,,
2016-03-28 22:50:00,1,19688,77,0.01,1,2,0,1,0,31434,12410,23660,77,77,0,77,0.00,0.05,0.02,0.00
2016-03-28 23:00:00,2,32249,37,0.03,2,2,0,2,11737,47034,10514,31990,0,78,37,36,0.00,0.25,0.08,0.00
2016-03-28 23:10:00,2,40700,21,0.00,2,2,0,2,27133,50000,6398,40145,0,71,33,0,0.00,0.00,0.00,0.00
2016-03-28 23:20:00,2,39834,0,0.00,2,2,0,2,27974,50000,5580,40527,0,0,0,0,0.00,0.00,0.00,0.00
2016-03-28 23:30:00,2,30088,0,0.00,2,2,0,2,17446,49600,10876,25971,0,0,0,0,0.00,0.00,0.00,0.00
2016-03-28 23:40:00,2,31352,22,0.00,2,2,0,2,15235,47109,10135,30378,0,77,33,0,0.00,0.00,0.00,0.00
2016-03-28 23:50:00,2,30749,0,0.00,2,2,0,2,22446,42412,6351,29816,0,0,0,0,0.00,0.00,0.00,0.00
